Regional Weather Roundup
Issued by NWS

Home | Current Version | Previous Version | Graphics & Text | Print | Product List | Glossary On
Versions: 1 2 3 4 5 6 7 8 9 10 11 12 13 14 15 16 17 18 19 20 21 22 23 24 25 26 27 28 29 30 31 32 33 34 35 36 37 38 39 40 41 42 43 44 45 46 47 48 49 50
734
ASUS43 KLOT 232203
RWRIL

ILLINOIS REGIONAL WEATHER ROUNDUP
NATIONAL WEATHER SERVICE CHICAGO/ROMEOVILLE IL
400 PM CST TUE JAN 23 2018

NOTE: "FAIR" INDICATES FEW OR NO CLOUDS BELOW 12,000 FEET WITH NO
SIGNIFICANT WEATHER AND/OR OBSTRUCTIONS TO VISIBILITY.

* THESE STATIONS ARE NOT UNDER NWS QUALITY CONTROL. THEY ALSO MAY NOT
  REPORT WEATHER SUCH AS PRECIPITATION OR FOG.

ILZ001-002-007-009-015-016-024-232300-
NORTHWEST ILLINOIS

CITY           SKY/WX    TMP DP  RH WIND       PRES   REMARKS
MOLINE         CLOUDY    30  22  72 NW12      30.09R WCI  20
STERLING*      CLOUDY    30  26  85 NW14      30.06  WCI  19
SAVANNA*       CLOUDY    28  23  83 NW10      30.07R WCI  18
$$

ILZ003-004-008-010-011-017-018-232300-
NORTH CENTRAL ILLINOIS

CITY           SKY/WX    TMP DP  RH WIND       PRES   REMARKS
ROCKFORD       CLOUDY    29  23  78 N14G20    30.04R WCI  18
FREEPORT*      CLOUDY    28  25  87 NW13      30.05R WCI  17
ROCHELLE*      CLOUDY    30  26  85 N13       30.03R WCI  20
DE KALB*       CLOUDY    30  26  85 NW13      30.01R WCI  20
PERU*          CLOUDY    30  26  83 NW21      30.05R WCI  17
$$

ILZ005-006-012>014-019>023-232300-
NORTHEAST ILLINOIS

CITY           SKY/WX    TMP DP  RH WIND       PRES   REMARKS
CHICAGO-OHARE  CLOUDY    30  24  78 NW10      29.98R WCI  21
CHICAGO-MIDWAY CLOUDY    31  24  75 NW15      29.99R WCI  20
AURORA         CLOUDY    31  27  85 NW17      30.00R WCI  19
LANSING*       CLOUDY    30  26  83 NW6       30.00R WCI  24
JOLIET*        CLOUDY    32  26  76 NW3       30.01R
WAUKEGAN       CLOUDY    29  24  82 NW6       29.98R WCI  23
DUPAGE AIRPORT CLOUDY    30  26  85 NW20G25   29.99R WCI  17
KANKAKEE*      CLOUDY   N/A N/A N/A NW7       30.02R
WHEELING       CLOUDY    30  24  78 NW12      30.00R WCI  20
MORRIS*        CLOUDY    32  27  80 NW8       30.01R WCI  25
NORTHERLY ISL    N/A     30  23  75 NW12        N/A  WCI  21
$$

LMZ740>746-232300-
SOUTHERN LAKE MICHIGAN

STATION/POSITION SKY/WX   TEMP    WIND        PRES    VSBY  WAVE
                          AIR SEA DIR/SP/G                  HT/PER
                          (F)     (DEG/KT/KT) (MB)    (MI)  (FT/S)
HARRISON CRIB              31     310/ 16/ 17   N/A
BURNHAM HARBOR             30     310/ 11/ 16   N/A
CALUMET HARBOR             30     300/  8/ 13 1014.5R
BURNS HARBOR               30     310/ 13/ 18 1015.6R
MICHIGAN CITY              30     290/ 22/ 24   N/A
$$

ILZ025>027-034>036-040-047-049-050-058-095>099-232300-
WEST-CENTRAL ILLINOIS

CITY           SKY/WX    TMP DP  RH WIND       PRES   REMARKS
QUINCY         CLOUDY    32  25  75 NW15      30.13R WCI  22
MACOMB*        CLOUDY    32  26  78 W16       30.13R WCI  21
JACKSONVILLE*  CLOUDY    32  26  78 W15G24    30.13R WCI  22
PITTSFIELD*    CLOUDY    34  27  75 W15G21    30.14R WCI  24
$$

ILZ028>032-037-038-041>044-048-051>054-059>061-232300-
CENTRAL ILLINOIS

CITY           SKY/WX    TMP DP  RH WIND       PRES   REMARKS
BLOOMINGTON    CLOUDY    31  27  85 W15       30.05R WCI  20
DECATUR        CLOUDY    32  29  88 W10       30.08R WCI  24
PEORIA         CLOUDY    32  25  75 NW13G28   30.08R WCI  22
LACON*           N/A     30  26  82 NW15G22   30.07R WCI  19
LINCOLN*       CLOUDY    34  29  82 W9G20     30.08R WCI  26
SPRINGFIELD    CLOUDY    34  28  79 W16       30.11R WCI  24
TAYLORVILLE    CLOUDY    32  28  83 W15G24    30.10R WCI  22
$$

ILZ033-039-045-046-055>057-062-063-232300-
EAST-CENTRAL ILLINOIS

CITY           SKY/WX    TMP DP  RH WIND       PRES   REMARKS
CHAMPAIGN      CLOUDY    32  27  81 W14       30.05R WCI  22
DANVILLE*      CLOUDY    31  28  86 W14G20    30.00R WCI  21
RANTOUL*       CLOUDY    33  29  85 NW14G21   30.04R WCI  23
MATTOON        CLOUDY    32  29  88 W18       30.06R WCI  20
$$

ILZ079-100>102-232300-
SOUTHWEST ILLINOIS

CITY           SKY/WX    TMP DP  RH WIND       PRES   REMARKS
ALTON          CLOUDY    34  30  86 W17       30.13R WCI  23
CAHOKIA*       CLOUDY    37  27  67 NW16      30.14R WCI  28
SPARTA*        CLOUDY    36  30  78 W9        30.14R WCI  29
$$

ILZ064>066-069>071-074>076-080>082-084>086-088>090-092>094-232300-
SOUTH-CENTRAL ILLINOIS

CITY           SKY/WX    TMP DP  RH WIND       PRES   REMARKS
CARBONDALE     CLOUDY    37  27  67 NW10      30.14R WCI  30
CAIRO*         CLOUDY    39  30  70 NW9       30.16R WCI  33
EFFINGHAM*     CLOUDY    33  30  89 W15G23    30.11R WCI  23
MARION         CLOUDY    36  25  64 W7G16     30.16R WCI  30
MT. VERNON     CLOUDY    35  27  72 NW6       30.13R WCI  30
CENTRALIA*     CLOUDY    35  29  79 W8        30.12R WCI  29
SALEM*         CLOUDY    35  28  76 W12G21    30.12R WCI  27
METROPOLIS*    CLOUDY    39  29  68 W8        30.16R WCI  33
$$

ILZ067-068-072-073-078-083-087-091-232300-
SOUTHEAST ILLINOIS

CITY           SKY/WX    TMP DP  RH WIND       PRES   REMARKS
LAWRENCEVILLE  CLOUDY    35  29  78 NW17      30.09R WCI  25
FLORA*         CLOUDY    36  28  75 W13       30.12R WCI  27
FAIRFIELD*     CLOUDY    35  28  74 W5        30.12R WCI  31
HARRISBURG*    CLOUDY    37  28  71 W10       30.15R WCI  29
ROBINSON*      CLOUDY    32  30  90 W10       30.09R WCI  24
CARMI*         CLOUDY    35  30  83 W12       30.12R WCI  26
$$

ABBREVIATIONS USED IN REMARKS
   TC - TEMPERATURE IN CELSIUS
  WCI - WIND CHILL INDEX
   HX - HEAT INDEX
  VSB - VISIBILITY
$$





USA.gov is the U.S. government's official web portal to all federal, state and local government web resources and services.